Regional Weather Roundup
Issued by NWS

Home | Current Version | Previous Version | Text Only | Print | Product List | Glossary Off
Versions: 1 2 3 4 5 6 7 8 9 10 11 12 13 14 15 16 17 18 19 20 21 22 23 24 25 26 27 28 29 30 31 32 33 34 35 36 37 38 39 40 41 42 43 44 45 46 47 48 49 50

438
ASUS43 KLMK 060210
RWRKY
KENTUCKY REGIONAL WEATHER ROUNDUP
NATIONAL WEATHER SERVICE LOUISVILLE KY
1000 PM EDT THU MAY 05 2016

NOTE "FAIR" INDICATES FEW OR NO CLOUDS BELOW 12,000 FEET
WITH NO SIGNIFICANT WEATHER AND/OR OBSTRUCTIONS TO VISIBILITY.

KYZ001>023-026-027-061>063-070>075-060300-
WESTERN AND SOUTH CENTRAL KENTUCKY

CITY           SKY/WX    TMP DP  RH WIND       PRES   REMARKS
PADUCAH        CLEAR     50  44  80 W3        29.99S
HENDERSON      CLEAR     54  45  71 W3        29.96R
OWENSBORO      CLEAR     53  48  83 CALM      29.97R
HOPKINSVILLE   CLEAR     52  44  76 NW5       29.98R
BOWLING GREEN  CLEAR     52  45  77 W3        29.96R
GLASGOW        CLEAR     47  47 100 CALM      29.95R
$$

KYZ024-025-028>034-038-045-046-053-060300-
NORTH CENTRAL KENTUCKY

CITY           SKY/WX    TMP DP  RH WIND       PRES   REMARKS
LOUISVILLE/SDF PTCLDY    54  44  69 W8        29.92R
LOUISVILLE/LOU PTCLDY    55  45  68 W7        29.92R
FORT KNOX      PTCLDY    48  44  87 W8        29.91R
$$

KYZ035>037-039>044-047>052-055>060-089>105-060300-
NORTHEAST KENTUCKY

CITY           SKY/WX    TMP DP  RH WIND       PRES   REMARKS
LEXINGTON      CLEAR     47  43  86 W5        29.90R
COVINGTON      MOCLDY    51  47  86 NW6       29.88R
FRANKFORT      CLOUDY    50  45  83 SW5       29.89S
$$

KYZ054-064>069-076>088-106>120-060300-
SOUTHEAST KENTUCKY

CITY           SKY/WX    TMP DP  RH WIND       PRES   REMARKS
JACKSON        CLOUDY    49  43  80 NW6       29.86S
LONDON         CLOUDY    50  42  74 NW6       29.89S
SOMERSET       CLOUDY    48  43  81 NW6       29.93R
MIDDLESBORO    MOCLDY    49  40  71 N5        29.89R
MONTICELLO     CLOUDY    51  45  79 NW8       29.95R
$$





USA.gov is the U.S. government's official web portal to all federal, state and local government web resources and services.